Regional Weather Roundup
Issued by NWS

Home | Current Version | Previous Version | Graphics & Text | Print | Product List | Glossary On
Versions: 1 2 3 4 5 6 7 8 9 10 11 12 13 14 15 16 17 18 19 20 21 22 23 24 25 26 27 28 29 30 31 32 33 34 35 36 37 38 39 40 41 42 43 44 45 46 47 48 49 50
000
ASUS43 KMPX 290510
RWRMN
WEATHER ROUNDUP FOR MINNESOTA
NATIONAL WEATHER SERVICE TWIN CITIES/CHANHASSEN MN
1200 AM CDT FRI MAY 29 2015


NOTE: "FAIR" INDICATES FEW OR NO CLOUDS BELOW 12,000 FEET WITH NO
SIGNIFICANT WEATHER AND/OR OBSTRUCTIONS TO VISIBILITY. N/A MEANS
CURRENT SKY AND/OR WEATHER CONDITIONS ARE NOT AVAILABLE.

MNZ060>063-068>070-290600-
   Twin Cities Metro

CITY           SKY/WX    TMP DP  RH WIND       PRES   REMARKS
TWIN CITIES    CLOUDY    74  56  53 SW9G20    29.93F
ST PAUL        CLOUDY    69  56  62 S7        29.94S
CRYSTAL        PTCLDY    73  56  54 S12       29.92S
BLAINE         PTCLDY    73  55  53 SW9       29.93S
LAKEVILLE      CLOUDY    70  57  64 CALM      29.94F
EDEN PRAIRIE   CLOUDY    71  58  63 S8        29.92F
SOUTH ST PAUL  CLOUDY    71  54  54 CALM      29.94S
LAKE ELMO      CLOUDY    68  55  64 S7        29.96S
$$
MNZ001>005-007-008-013>017-022>024-027-028-290600-
   Northwest Minnesota

CITY           SKY/WX    TMP DP  RH WIND       PRES   REMARKS
BEMIDJI        LGT RAIN  60  58  93 CALM      29.87S
HALLOCK        CLOUDY    61  57  88 N14       29.89R
ROSEAU         CLOUDY    63  57  82 W6        29.85S
WARROAD        CLOUDY    61  55  82 W3        29.85S
THIEF RVR FALL CLOUDY    64  63  94 CALM      29.86R
CROOKSTON      CLOUDY    64  61  88 N9        29.86S
FOSSTON        CLOUDY    61  57  88 S3        29.86F
DETROIT LAKES  HVY RAIN  61  59  94 S9        29.88S
MOORHEAD       LGT RAIN  63  61  94 S10       29.86S
PARK RAPIDS    LGT RAIN  62  57  83 W5        29.88R
MAHNOMEN       LGT RAIN  61  59  93 S3        29.86S
$$
MNZ006-009>011-018-025>026-290600-
   North Central Minnesota

CITY           SKY/WX    TMP DP  RH WIND       PRES   REMARKS
BAUDETTE       CLOUDY    60  59  96 SW5       29.84R
FLAG ISLAND    CLOUDY    59  57  94 NW5       29.82F
INTL FALLS     LGT RAIN  59  58  96 S5        29.84F
WASKISH        LGT RAIN  61  59  94 CALM      29.85S
BIG FORK       LGT RAIN  61  59  94 CALM      29.88F
LONGVILLE      RAIN      64  57  77 CALM      29.88F
GRAND RAPIDS   CLOUDY    64  52  63 E7        29.89S
CRANE LAKE     DRIZZLE   57  57 100 CALM      29.90F
COOK           CLOUDY    64  55  72 CALM      29.91S
WALKER         RAIN      60  56  87 W10       29.87F
$$
MNZ012-019>021-037-290600-
   Northeast Minnesota

CITY           SKY/WX    TMP DP  RH WIND       PRES   REMARKS
DULUTH         MOCLDY    44  42  93 E8        29.93F
HIBBING        CLOUDY    57  48  72 CALM      29.90R
EVELETH        CLOUDY    57  46  67 CALM      29.91S
DULUTH HARBOR  CLOUDY    43  39  87 NE5       29.96F
TWO HARBORS    MOCLDY    46  43  87 CALM      29.93F
SILVER BAY     CLOUDY    46  45  93 CALM      29.93F
GRAND MARAIS     N/A     40  38  93 SW5       29.95S
G MARAIS ARPRT CLOUDY    52  46  82 CALM      29.95S
$$
MNZ029>031-032-039>041-046>048-054>057-064-290600-
   West Central Minnesota

CITY           SKY/WX    TMP DP  RH WIND       PRES   REMARKS
FERGUS FALLS   RAIN      61  61 100 SE6       29.90F
WHEATON        RAIN      59  57  94 E5        29.92F
MORRIS         TSTM      63  61  94 N17G23    29.93R
ALEXANDRIA     CLOUDY    65  56  72 NW18G24   29.94R
ELBOW LAKE     RAIN      60  59  97 E3        29.92F
WADENA         HVY RAIN  61  59  94 W6        29.91S
GLENWOOD       MOCLDY    68  57  68 W15       29.92R
APPLETON       CLOUDY    72  57  60 SW3       29.87R
BENSON         CLOUDY    68  55  64 SW7       29.88R
ORTONVILLE     CLOUDY    64  61  88 N21G28    29.90R
MADISON        MOCLDY    70  57  64 S13       29.86F
WILLMAR        FAIR      70  61  73 CALM      29.90F
$$
MNZ033>034-036-042>043-049>051-058-059-290600-
   Central Minnesota

CITY           SKY/WX    TMP DP  RH WIND       PRES   REMARKS
ST CLOUD       MOCLDY    70  57  63 S21G26    29.89F
SAUK CENTRE    FAIR      68  57  67 S13       29.88F
PAYNESVILLE    MOCLDY    65  56  72 SE9       29.89F
AITKIN         CLOUDY    72  52  49 S13       29.86F
PINE RIVER     TSTM      66  57  72 W6        29.92R
BRAINERD       CLOUDY    69  53  56 S12       29.87F
STAPLES        HVY RAIN  61  57  88 N12       29.89R
LONG PRAIRIE   FAIR      68  55  64 S14G23    29.89S
LITTLE FALLS   CLOUDY    70  54  56 S8        29.89S
LITCHFIELD     PTCLDY    68  61  77 SE3       29.92F
BUFFALO        PTCLDY    70  58  65 S6        29.94S
MAPLE LAKE     PTCLDY    69  60  71 S6        29.93F
$$
MNZ037-044-045-052-053-290600-
   East Central Minnesota

CITY           SKY/WX    TMP DP  RH WIND       PRES   REMARKS
PRINCETON      PTCLDY    72  55  56 S7        29.92S
MORA           PTCLDY    64  52  63 S6        29.93R
CAMBRIDGE      PTCLDY    70  54  56 S6        29.91R
RUSH CITY      PTCLDY    67  55  64 S7        29.93S
MOOSE LAKE     MOCLDY    45  43  93 NE3       29.90F
HINCKLEY       FAIR      68  55  64 S7        29.92S
CLOQUET        FOG       43  43 100 E5        29.93F VSB 3/4
MCGREGOR       MOCLDY    63  52  67 SE8       29.90S
$$
MNZ071>073-080-081-089-090-097-098-290600-
   Southwest Minnesota

CITY           SKY/WX    TMP DP  RH WIND       PRES   REMARKS
MONTEVIDEO     CLOUDY    68  59  73 S7        29.88F
GRANITE FALLS  CLOUDY    67  59  75 SE13      29.90F
CANBY          MOCLDY    67  58  73 S6        29.87F
MARSHALL       CLOUDY    66  55  68 S9        29.87F
REDWOOD FALLS  MOCLDY    67  59  75 S10       29.90S
OLIVIA         MOCLDY    64  57  77 S7        29.90F
PIPESTONE      MOCLDY    64  59  82 S13       29.89F
WINDOM         CLOUDY    66  61  82 S9        29.91F
WORTHINGTON    CLOUDY    64  57  77 S10       29.91F
JACKSON        CLOUDY    64  61  88 S9        29.93S
TRACY          CLOUDY    66  60  81 S10       29.89F
SLAYTON        CLOUDY    63  60  90 S10       29.91F
$$
MNZ065>067-074>077-082>085-091>093-290600-
   South Central Minnesota

CITY           SKY/WX    TMP DP  RH WIND       PRES   REMARKS
MANKATO        CLOUDY    70  59  68 S9        29.93S
NEW ULM        MOCLDY    66  61  82 S7        29.92S
ST JAMES       CLOUDY    68  63  83 S9        29.93S
FAIRMONT       CLOUDY    66  59  77 S12       29.92F
GLENCOE        PTCLDY    69  62  78 S3        29.91F
FARIBAULT      CLOUDY    70  57  64 S5        29.95S
OWATONNA       CLOUDY    70  57  64 S7        29.94F
WASECA         CLOUDY    70  59  68 S12       29.95F
ALBERT LEA     CLOUDY    70  59  68 S9        29.94F
$$
MNZ078>079-086>088-094>096-290600-
   Southeast Minnesota

CITY           SKY/WX    TMP DP  RH WIND       PRES   REMARKS
ROCHESTER      CLOUDY    68  55  63 S8        29.97F
RED WING       CLOUDY    72  54  53 SE3       29.94F
STANTON        CLOUDY    69  56  63 CALM      29.93F
DODGE CENTER   LGT RAIN  66  57  72 S8        29.96F
WINONA         CLOUDY    70  54  56 CALM      29.97S
AUSTIN         CLOUDY    66  57  72 S5        29.96F
PRESTON        CLOUDY    65  53  64 S6        29.98F
$$
ABBREVIATIONS USED IN REMARKS
   TC - TEMPERATURES IN CELSIUS
  WCI - WIND CHILL INDEX
   HX - HEAT INDEX
  VSB - VISIBILITY
$$


USA.gov is the U.S. government's official web portal to all federal, state and local government web resources and services.